シューメーカー-レヴィ第4彗星

118P/Shoemaker-Levy 4 (2003)

English version
Home page
Total 6,336 html files since Dec. 4, 1995
Updated on May 29, 2004

---------------------------------------------------------------------

・ プロフィール

・ 写真集

・ 軌道要素

Epoch 2003 July 20.0 TT = JDT 2452840.5
T 2003 July 16.7602 TT                                  MPCN
q   2.011032             (2000.0)            P               Q
n   0.1517935      Peri.  302.0866      -0.0762946      -0.9946840
a   3.480438       Node   152.0394      +0.9573044      -0.0924708
e   0.422190       Incl.    8.4822      +0.2788323      +0.0453090
P   6.49
From 278 observations 1991-2002, mean residual 0".7.  Nongravitational
     parameters A1 = +1.44, A2 = -0.1486.

・ 星図

・ 光度変化

        m1 =  8.2 + 5 logΔ +  18.0 log r  [    ,-100]  (              〜2003年 4月 7日)
        m1 = -6.0 + 5 logΔ +  60.0 log r  [-100, 100]  (2003年 4月 7日〜2003年10月24日)
        m1 =  8.2 + 5 logΔ +  18.0 log r  [ 100, 215]  (2003年10月24日〜2004年 2月16日)
        m1 = 56.5 + 5 logΔ - 100   log r  [ 215, 245]  (2004年 2月16日〜2004年 3月17日)
        m1 = -5.6 + 5 logΔ +  45   log r  [ 245,    ]  (2004年 3月17日〜              )

        ※ 灰色の曲線は、m1 = 8.2 + 5 logΔ + 18.0 log r の光度曲線です。

---------------------------------------------------------------------

軌道要素はMPCのEphemerides and Orbital Elementsに掲載されたものです。
星図は StellaNavigator Ver.2.0 for Windows (アストロアーツ 編著 / アスキー出版局刊) で作成したものです。
光度グラフはComet for Windowsで作成したものです。

---------------------------------------------------------------------

Copyright(C) 1995-2008 Seiichi Yoshida (comet@aerith.net). All rights reserved.